Regional Weather Roundup
Issued by NWS

Home | Current Version | Previous Version | Graphics & Text | Print | Product List | Glossary On
Versions: 1 2 3 4 5 6 7 8 9 10 11 12 13 14 15 16 17 18 19 20 21 22 23 24 25 26 27 28 29 30 31 32 33 34 35 36 37 38 39 40 41 42 43 44 45 46 47 48 49 50
000
ASUS45 KBOU 302110
RWRCO

WEATHER ROUNDUP FOR COLORADO
NATIONAL WEATHER SERVICE DENVER/BOULDER CO
300 PM MDT TUE JUN 30 2015

NOTE: "FAIR" INDICATES FEW OR NO CLOUDS BELOW 12000 FEET WITH NO
SIGNIFICANT WEATHER AND/OR OBSTRUCTIONS TO VISIBILITY.

COZ001>005-013-030-031-302200-
...NORTHWEST COLORADO...

CITY           SKY/WX    TMP DP  RH WIND       PRES   REMARKS
CRAIG          MOSUNNY   95  40  14 W9        30.14F
HAYDEN         MOSUNNY   90  41  18 SW3       30.18F
MEEKER         MOSUNNY   92  44  19 SE9       30.17F
MOUNT WERNER   NOT AVBL
STEAMBOAT SPGS MOSUNNY   87  46  24 S6        30.21F
WALDEN         CLOUDY    68  52  56 E8        30.33F
$$

COZ006>008-011-302200-
...WEST CENTRAL VALLEYS...

CITY           SKY/WX    TMP DP  RH WIND       PRES   REMARKS
GRAND JUNCTION MOSUNNY   98  40  13 W10G17    30.02F
MONTROSE       SUNNY     96  41  15 W10       30.12F
EAGLE          MOSUNNY   90  41  18 E6        30.19F
RIFLE          MOSUNNY   98  41  14 CALM      30.08F
DELTA          SUNNY    101  39  11 S10       30.06F
NUCLA          SUNNY     95  37  13 N5        30.17F
$$

COZ017>023-064>068-302200-
...SOUTHWEST COLORADO...

CITY           SKY/WX    TMP DP  RH WIND       PRES   REMARKS
DURANGO        MOSUNNY   88  47  24 VRB5      30.21F
CORTEZ         SUNNY     94  44  17 N9G18     30.14F
PAGOSA SPRINGS MOSUNNY   84  39  20 CALM      30.30F
TELLURIDE      SUNNY     82  33  17 CALM      30.45S
WOLF CREEK PAS NOT AVBL
$$

COZ009-010-012-014-032>034-037-058>063-302200-
...CENTRAL COLORADO...

CITY           SKY/WX    TMP DP  RH WIND       PRES   REMARKS
ASPEN          SUNNY     87  42  20 NW10      30.29F
BUENA VISTA    SUNNY     86  30  13 W3        30.28F
COPPER MTN     PTSUNNY   70  32  24 W16G32    30.69F
BERTHOUD PASS  PTSUNNY   57  46  67 NW18G30   30.74F
COTTONWOOD PAS NOT AVBL
GUNNISON       SUNNY     84  41  21 N3        30.31F
KREMMLING      PTSUNNY   88  30  12 SW7       30.26F
LEADVILLE      MOSUNNY   79  30  16 NW14G22   30.47F
SALIDA         SUNNY     89  35  14 CALM      30.31F
SUNLIGHT       SUNNY     73  41  31 W3        30.61F
WILKERSON PASS PTSUNNY   70  34  26 S6        30.64F
$$

COZ069>075-302200-
...SAN LUIS VALLEY/SANGRE DE CRISTO MOUNTAINS...

CITY           SKY/WX    TMP DP  RH WIND       PRES   REMARKS
ALAMOSA        SUNNY     86  43  22 N9        30.28F
LA VETA PASS   MOSUNNY   75  43  31 MISG      30.52F
SAGUACHE       MOSUNNY   82  45  26 S8        30.31F THUNDER
$$

COZ035-036-038>040-302200-
...NORTHERN COLORADO FRONT RANGE...

CITY           SKY/WX    TMP DP  RH WIND       PRES   REMARKS
DENVER INTL AP MOSUNNY   92  43  18 NE5       30.08F
DMNS CITY PARK   N/A     92  42  17 NE6       30.06F
AURORA         MOSUNNY   90  48  23 SE7       30.11F
FRONT RANGE AP MOSUNNY   91  45  19 MISG      30.10F
ERIE MUNI ARPT SUNNY     94  38  14 S7        30.05F
BOULDER MUN AP SUNNY     93  41  16 E5        30.06F
CENTENNIAL     MOSUNNY   89  41  18 E7        30.12F
BROOMFIELD     PTSUNNY   93  39  15 E9        30.11F
FORT COLLINS   MOSUNNY   90  48  24 S3        30.03F
LONGMONT       MOSUNNY   97  42  15 E6        30.06F
$$

COZ041-046-047-076>085-087-088-302200-
...PIKES PEAK/PALMER DIVIDE AND SOUTHERN FOOTHILLS...

CITY           SKY/WX    TMP DP  RH WIND       PRES   REMARKS
COLO. SPRINGS  MOSUNNY   86  51  29 S8        30.18F
A. F. ACADEMY  SUNNY     86  48  26 SE12      30.18F
ELLICOTT       SUNNY      1   1 100 SW7       30.17F WCI -12
FALCON         SUNNY     86  46  24 CALM      30.24F
FORT CARSON    SUNNY     86  51  29 SE6       30.15F
LIMON          SUNNY     86  52  30 VRB6      30.11F
MONUMENT HILL  SUNNY     82  43  24 CALM      30.24F
TRINIDAD       SUNNY     91  49  23 VRB7      30.14F
$$

COZ042>045-048>051-090-091-302200-
...NORTHEAST COLORADO...

CITY           SKY/WX    TMP DP  RH WIND       PRES   REMARKS
GREELEY ARPT   SUNNY     93  43  17 E3        30.03S
AKRON          SUNNY     92  46  20 W8        30.03F
BURLINGTON     SUNNY     93  47  20 SW12G18   30.02F
WRAY           SUNNY     99  45  15 SW6       29.95F
STERLING       SUNNY     95  50  21 S12         N/A
HOLYOKE        SUNNY     99  52  20 S7        29.95F
FORT MORGAN    SUNNY     94  43  17 SE3       30.02F
$$

COZ086-089-092>099-302200-
...SOUTHEAST COLORADO...

CITY           SKY/WX    TMP DP  RH WIND       PRES   REMARKS
PUEBLO         SUNNY     97  44  16 SE9       30.04F
LA JUNTA       SUNNY     94  45  18 E5        30.02F
LAMAR          SUNNY     96  48  19 S13       29.97F
SPRINGFIELD      N/A     92  44  19 SW18G25   30.06F
$$



USA.gov is the U.S. government's official web portal to all federal, state and local government web resources and services.